Lafayette, LA

12:29 PM CST on February 07, 2016 (GMT -0600)
Lafayette Regional

Weather History for KLFT - April, 2015

Change the Weather History Date:

Saturday, April 4, 2015

  Actual Average Record
Temperature  
Mean Temperature 65 °F 66 °F  
Max Temperature 73 °F 77 °F 89 °F (1893)
Min Temperature 56 °F 56 °F 33 °F (1915)
Degree Days  
Heating Degree Days 0 2  
Month to date heating degree days 0 11  
Since 1 July heating degree days 1526 1391  
Cooling Degree Days 0 4  
Month to date cooling degree days 28 14  
Year to date cooling degree days 123 109  
Growing Degree Days 14 (Base 50)    
Moisture  
Dew Point 52 °F    
Average Humidity 71    
Maximum Humidity 100    
Minimum Humidity 41    
Precipitation  
Precipitation 0.01 in 0.12 in 3.01 in (1952)
Month to date precipitation 0.01 0.46  
Year to date precipitation 11.03 14.37  
Snow  
Snow 0.00 in 0.00 in 0.00 in ()
Month to date snowfall 0.0 0.0  
Since 1 July snowfall T T  
Snow Depth 0.00 in    
Sea Level Pressure  
Sea Level Pressure 30.17 in    
Wind  
Wind Speed 13 mph (NNE)    
Max Wind Speed 28 mph    
Max Gust Speed 32 mph    
Visibility 9 miles    
Events Rain    
T = Trace of Precipitation, MM = Missing Value Source: NWS Daily Summary

Daily Weather History Graph

Daily Weather History Graph

Search for Another Location

Airport or City:

Trip Planner

Search our weather history database for the weather conditions in past years. The results will help you decide how hot, cold, wet, or windy it might be!

Date:

Astronomy

Apr. 04, 2015 Rise Set
Actual Time 6:53 AM CDT 7:28 PM CDT
Civil Twilight 6:29 AM CDT 7:52 PM CDT
Nautical Twilight 6:01 AM CDT 8:21 PM CDT
Astronomical Twilight 5:32 AM CDT 8:50 PM CDT
Moon 7:51 PM CDT (4/4) 6:58 AM CDT (4/4)
Length of Visible Light 13h 23m
Length of Day
12h 34m
Full, 100% of the Moon is Illuminated
Apr 4
Full
Apr 11
Last Quarter
Apr 18
New
Apr 25
First Quarter
May 3
Full

Hourly Weather History & Observations

Time (CDT) Temp. Dew Point Humidity Pressure Visibility Wind Dir Wind Speed Gust Speed Precip Events Conditions
12:53 AM 70.0 °F 68.0 °F 93% 30.08 in 7.0 mi SSW 5.8 mph - N/A   Clear
1:53 AM 70.0 °F 69.1 °F 97% 30.07 in 5.0 mi WSW 4.6 mph - N/A   Scattered Clouds
2:41 AM 72.0 °F 69.1 °F 91% 30.08 in 8.0 mi NW 9.2 mph - N/A   Overcast
2:53 AM 71.1 °F 69.1 °F 93% 30.08 in 4.0 mi NW 11.5 mph 19.6 mph 0.01 in Rain Light Rain
3:11 AM 66.0 °F 63.0 °F 90% 30.10 in 5.0 mi North 18.4 mph 26.5 mph 0.00 in   Overcast
3:42 AM 61.0 °F 57.0 °F 87% 30.11 in 10.0 mi North 17.3 mph 25.3 mph 0.00 in   Overcast
3:53 AM 60.1 °F 55.0 °F 83% 30.12 in 10.0 mi North 17.3 mph 23.0 mph 0.00 in   Overcast
4:53 AM 60.1 °F 51.1 °F 72% 30.13 in 10.0 mi North 19.6 mph 29.9 mph N/A   Overcast
5:53 AM 59.0 °F 48.9 °F 69% 30.16 in 10.0 mi North 18.4 mph 24.2 mph N/A   Overcast
6:53 AM 57.0 °F 48.9 °F 74% 30.18 in 10.0 mi NNE 24.2 mph 32.2 mph N/A   Overcast
7:53 AM 57.0 °F 46.9 °F 69% 30.21 in 10.0 mi NE 18.4 mph 28.8 mph N/A   Overcast
8:53 AM 57.9 °F 46.0 °F 65% 30.23 in 10.0 mi NE 18.4 mph - N/A   Overcast
9:53 AM 60.1 °F 48.0 °F 64% 30.27 in 10.0 mi NNE 15.0 mph - N/A   Overcast
10:53 AM 61.0 °F 48.0 °F 62% 30.28 in 10.0 mi NE 15.0 mph 23.0 mph N/A   Overcast
11:53 AM 63.0 °F 48.9 °F 60% 30.26 in 10.0 mi NNE 17.3 mph - N/A   Overcast
12:53 PM 66.0 °F 48.9 °F 54% 30.26 in 10.0 mi NNE 16.1 mph 25.3 mph N/A   Clear
1:53 PM 66.9 °F 48.9 °F 52% 30.23 in 10.0 mi NNE 13.8 mph 19.6 mph N/A   Overcast
2:53 PM 70.0 °F 46.9 °F 44% 30.20 in 10.0 mi NNE 17.3 mph - N/A   Mostly Cloudy
3:53 PM 71.1 °F 46.0 °F 41% 30.18 in 10.0 mi NNE 12.7 mph - N/A   Clear
4:53 PM 72.0 °F 46.9 °F 41% 30.17 in 10.0 mi North 10.4 mph - N/A   Clear
5:53 PM 72.0 °F 46.9 °F 41% 30.16 in 10.0 mi NNE 9.2 mph - N/A   Clear
6:53 PM 68.0 °F 48.9 °F 50% 30.17 in 10.0 mi NNE 6.9 mph - N/A   Partly Cloudy
7:53 PM 64.9 °F 48.0 °F 54% 30.17 in 10.0 mi NNE 5.8 mph - N/A   Clear
8:53 PM 62.1 °F 48.9 °F 62% 30.18 in 10.0 mi NNE 5.8 mph - N/A   Clear
9:53 PM 61.0 °F 48.0 °F 62% 30.20 in 10.0 mi NE 8.1 mph - N/A   Clear
10:53 PM 59.0 °F 46.9 °F 64% 30.20 in 10.0 mi NE 6.9 mph - N/A   Clear
11:53 PM 57.0 °F 46.9 °F 69% 30.20 in 10.0 mi NNE 3.5 mph - N/A   Clear